Change the Weather History Date:

Thursday, January 24, 2013

  Actual Average Record
Temperature  
Mean Temperature 60 °F -  
Max Temperature 69 °F 61 °F 81 °F (1950)
Min Temperature 50 °F 41 °F 7 °F (1948)
Degree Days  
Heating Degree Days 6    
Growing Degree Days 10 (Base 50)    
Moisture  
Dew Point 54 °F    
Average Humidity 78    
Maximum Humidity 94    
Minimum Humidity 64    
Precipitation  
Precipitation 0.00 in - - ()
Sea Level Pressure  
Sea Level Pressure 30.25 in    
Wind  
Wind Speed 6 mph (SSW)    
Max Wind Speed 15 mph    
Max Gust Speed 18 mph    
Visibility 10 miles    
Events      
Averages and records for this station are not official NWS values.
T = Trace of Precipitation, MM = Missing Value Source: NWS Daily Summary

Daily Weather History Graph

Daily Weather History Graph

Search for Another Location

Airport or City:

Trip Planner

Search our weather history database for the weather conditions in past years. The results will help you decide how hot, cold, wet, or windy it might be!

Date:

Astronomy

Jan. 24, 2013 Rise Set
Actual Time 7:02 AM CST 5:32 PM CST
Civil Twilight 6:36 AM CST 5:58 PM CST
Nautical Twilight 6:06 AM CST 6:28 PM CST
Astronomical Twilight 5:37 AM CST 6:57 PM CST
Moon 3:36 PM CST (1/24) 4:57 AM CST (1/24)
Length of Visible Light 11h 22m
Length of Day
10h 30m
Waxing Gibbous, 94% of the Moon is Illuminated
Jan 24
Waxing Gibbous
Jan 26
Full
Feb 3
Last Quarter
Feb 10
New
Feb 17
First Quarter

Hourly Weather History & Observations

Time (CST) Temp. Dew Point Humidity Pressure Visibility Wind Dir Wind Speed Gust Speed Precip Events Conditions
12:15 AM 55.4 °F 50.0 °F 82% 30.27 in 10.0 mi South 5.8 mph - N/A   Clear
12:35 AM 55.4 °F 50.0 °F 82% 30.27 in 10.0 mi SSW 4.6 mph - N/A   Clear
12:55 AM 55.4 °F 50.0 °F 82% 30.27 in 10.0 mi SSW 5.8 mph - N/A   Clear
1:15 AM 55.4 °F 50.0 °F 82% 30.26 in 10.0 mi SSW 4.6 mph - N/A   Partly Cloudy
1:35 AM 55.4 °F 48.2 °F 77% 30.26 in 10.0 mi South 3.5 mph - N/A   Clear
1:55 AM 53.6 °F 48.2 °F 82% 30.26 in 10.0 mi South 3.5 mph - N/A   Clear
2:15 AM 53.6 °F 48.2 °F 82% 30.26 in 10.0 mi South 3.5 mph - N/A   Clear
2:35 AM 53.6 °F 50.0 °F 88% 30.26 in 10.0 mi South 3.5 mph - N/A   Scattered Clouds
2:55 AM 51.8 °F 48.2 °F 88% 30.27 in 10.0 mi South 3.5 mph - N/A   Mostly Cloudy
3:15 AM 51.8 °F 48.2 °F 88% 30.26 in 10.0 mi South 3.5 mph - N/A   Scattered Clouds
3:35 AM 51.8 °F 48.2 °F 88% 30.26 in 10.0 mi South 3.5 mph - N/A   Partly Cloudy
3:55 AM 51.8 °F 48.2 °F 88% 30.26 in 10.0 mi SSW 5.8 mph - N/A   Partly Cloudy
4:15 AM 50.0 °F 46.4 °F 87% 30.26 in 10.0 mi SSW 3.5 mph - N/A   Scattered Clouds
4:35 AM 53.6 °F 50.0 °F 88% 30.26 in 10.0 mi South 4.6 mph - N/A   Mostly Cloudy
4:55 AM 51.8 °F 48.2 °F 88% 30.28 in 10.0 mi SSE 3.5 mph - N/A   Overcast
5:15 AM 53.6 °F 51.8 °F 94% 30.28 in 10.0 mi South 4.6 mph - N/A   Overcast
5:35 AM 53.6 °F 51.8 °F 94% 30.28 in 10.0 mi SSW 4.6 mph - N/A   Overcast
5:55 AM 53.6 °F 50.0 °F 88% 30.28 in 10.0 mi SSW 4.6 mph - N/A   Scattered Clouds
6:15 AM 57.2 °F 51.8 °F 82% 30.28 in 10.0 mi SW 6.9 mph - N/A   Scattered Clouds
6:35 AM 57.2 °F 51.8 °F 82% 30.29 in 10.0 mi SSW 3.5 mph - N/A   Mostly Cloudy
6:55 AM 55.4 °F 51.8 °F 88% 30.29 in 10.0 mi South 3.5 mph - N/A   Overcast
7:15 AM 55.4 °F 51.8 °F 88% 30.29 in 10.0 mi South 4.6 mph - N/A   Overcast
7:35 AM 55.4 °F 51.8 °F 88% 30.29 in 10.0 mi South 4.6 mph - N/A   Overcast
7:55 AM 55.4 °F 51.8 °F 88% 30.30 in 10.0 mi South 5.8 mph - N/A   Mostly Cloudy
8:15 AM 57.2 °F 53.6 °F 88% 30.31 in 10.0 mi South 4.6 mph - N/A   Mostly Cloudy
8:35 AM 59.0 °F 53.6 °F 82% 30.31 in 10.0 mi South 5.8 mph - N/A   Overcast
8:55 AM 60.8 °F 53.6 °F 77% 30.31 in 10.0 mi South 4.6 mph - N/A   Mostly Cloudy
9:15 AM 60.8 °F 53.6 °F 77% 30.30 in 10.0 mi SSW 8.1 mph - N/A   Partly Cloudy
9:35 AM 62.6 °F 55.4 °F 77% 30.32 in 10.0 mi SW 5.8 mph - N/A   Scattered Clouds
9:55 AM 64.4 °F 55.4 °F 73% 30.32 in 10.0 mi WSW 9.2 mph - N/A   Overcast
10:15 AM 64.4 °F 55.4 °F 73% 30.33 in 10.0 mi SW 6.9 mph - N/A   Overcast
10:35 AM 64.4 °F 57.2 °F 77% 30.32 in 10.0 mi SW 10.4 mph - N/A   Overcast
10:56 AM 64.4 °F 55.4 °F 73% 30.31 in 10.0 mi SW 9.2 mph - N/A   Mostly Cloudy
11:15 AM 66.2 °F 57.2 °F 73% 30.30 in 10.0 mi SW 8.1 mph - N/A   Mostly Cloudy
11:35 AM 66.2 °F 57.2 °F 73% 30.29 in 10.0 mi WSW 10.4 mph 18.4 mph N/A   Mostly Cloudy
11:55 AM 69.8 °F 59.0 °F 68% 30.28 in 10.0 mi South 10.4 mph - N/A   Scattered Clouds
12:15 PM 69.8 °F 57.2 °F 64% 30.26 in 10.0 mi SSW 11.5 mph 18.4 mph N/A   Scattered Clouds
12:35 PM 69.8 °F 57.2 °F 64% 30.25 in 10.0 mi WSW 15.0 mph - N/A   Mostly Cloudy
12:55 PM 69.8 °F 59.0 °F 68% 30.25 in 10.0 mi West 12.7 mph 17.3 mph N/A   Mostly Cloudy
1:15 PM 69.8 °F 57.2 °F 64% 30.23 in 10.0 mi WSW 11.5 mph 16.1 mph N/A   Overcast
1:35 PM 69.8 °F 57.2 °F 64% 30.22 in 10.0 mi WSW 10.4 mph - N/A   Overcast
1:55 PM 69.8 °F 57.2 °F 64% 30.22 in 10.0 mi SW 8.1 mph - N/A   Overcast
2:15 PM 69.8 °F 57.2 °F 64% 30.21 in 10.0 mi WSW 9.2 mph - N/A   Overcast
2:35 PM 69.8 °F 57.2 °F 64% 30.22 in 10.0 mi West 6.9 mph - N/A   Mostly Cloudy
2:55 PM 69.8 °F 57.2 °F 64% 30.21 in 10.0 mi SW 5.8 mph - N/A   Mostly Cloudy
3:15 PM 69.8 °F 57.2 °F 64% 30.20 in 10.0 mi SSW 9.2 mph - N/A   Scattered Clouds
3:35 PM 69.8 °F 57.2 °F 64% 30.20 in 10.0 mi SW 8.1 mph - N/A   Scattered Clouds
3:55 PM 69.8 °F 57.2 °F 64% 30.19 in 10.0 mi SSW 6.9 mph - N/A   Mostly Cloudy
4:15 PM 69.8 °F 57.2 °F 64% 30.19 in 10.0 mi West 5.8 mph - N/A   Mostly Cloudy
4:36 PM 68.0 °F 57.2 °F 68% 30.20 in 10.0 mi West 4.6 mph - N/A   Mostly Cloudy
4:55 PM 68.0 °F 57.2 °F 68% 30.21 in 10.0 mi West 3.5 mph - N/A   Mostly Cloudy
5:15 PM 68.0 °F 57.2 °F 68% 30.21 in 10.0 mi SW 4.6 mph - N/A   Mostly Cloudy
5:35 PM 66.2 °F 57.2 °F 73% 30.21 in 10.0 mi SW 3.5 mph - N/A   Mostly Cloudy
5:55 PM 66.2 °F 57.2 °F 73% 30.21 in 10.0 mi Calm Calm - N/A   Scattered Clouds
6:15 PM 64.4 °F 57.2 °F 77% 30.21 in 10.0 mi Calm Calm - N/A   Mostly Cloudy
6:35 PM 64.4 °F 57.2 °F 77% 30.21 in 10.0 mi North 4.6 mph - N/A   Overcast
6:55 PM 62.6 °F 57.2 °F 82% 30.22 in 10.0 mi North 3.5 mph - N/A   Overcast
7:15 PM 62.6 °F 57.2 °F 82% 30.22 in 9.0 mi Calm Calm - N/A   Mostly Cloudy
7:35 PM 62.6 °F 57.2 °F 82% 30.21 in 10.0 mi Calm Calm - N/A   Mostly Cloudy
7:55 PM 62.6 °F 57.2 °F 82% 30.21 in 10.0 mi Calm Calm - N/A   Mostly Cloudy
8:15 PM 60.8 °F 55.4 °F 82% 30.20 in 10.0 mi South 5.8 mph - N/A   Scattered Clouds
8:35 PM 62.6 °F 55.4 °F 77% 30.20 in 10.0 mi South 6.9 mph - N/A   Clear
8:55 PM 62.6 °F 55.4 °F 77% 30.20 in 10.0 mi South 5.8 mph - N/A   Clear
9:15 PM 62.6 °F 57.2 °F 82% 30.20 in 10.0 mi South 6.9 mph - N/A   Clear
9:35 PM 62.6 °F 57.2 °F 82% 30.21 in 10.0 mi South 5.8 mph - N/A   Clear
10:15 PM 60.8 °F 57.2 °F 88% 30.20 in 10.0 mi South 6.9 mph - N/A   Clear
10:35 PM 60.8 °F 55.4 °F 82% 30.21 in 10.0 mi South 6.9 mph - N/A   Clear
10:55 PM 60.8 °F 55.4 °F 82% 30.21 in 10.0 mi South 9.2 mph - N/A   Clear
11:15 PM 60.8 °F 55.4 °F 82% 30.21 in 10.0 mi South 8.1 mph - N/A   Clear
11:35 PM 60.8 °F 55.4 °F 82% 30.20 in 10.0 mi South 9.2 mph - N/A   Clear
11:55 PM 60.8 °F 55.4 °F 82% 30.20 in 10.0 mi SSW 6.9 mph - N/A   Clear